Terminal Aerodrome Forecast
Issued by NWS Boston, MA

Home | Current Version | Previous Version | Text Only | Print | Product List | Glossary On
Versions: 1 2 3 4 5 6 7 8 9 10 11 12 13 14 15 16 17 18 19 20 21 22 23 24 25 26 27 28 29 30 31 32 33 34 35 36 37 38 39 40 41 42 43 44 45 46 47 48 49 50
308
FTUS41 KBOX 232320
TAFPVD
TAF
KPVD 232320Z 2400/2424 17012KT P6SM BKN009 BKN020 OVC030
     FM240200 18008KT 6SM BR VCSH BKN009
     FM240400 18008KT P6SM -SHRA OVC020
     FM240700 19008KT P6SM BKN050
     FM241500 28010G18KT P6SM FEW150=

USA.gov is the U.S. government's official web portal to all federal, state and local government web resources and services.